Weather History for Alpena, MI

Change the Weather History Date:

Friday, November 7, 2014

  Actual Average Record
Temperature  
Mean Temperature 34 °F 39 °F  
Max Temperature 38 °F 47 °F 65 °F (2009)
Min Temperature 29 °F 31 °F 12 °F (1991)
Degree Days  
Heating Degree Days 31 26  
Month to date heating degree days 183 177  
Since 1 July heating degree days 1102 1121  
Moisture  
Dew Point 24 °F    
Average Humidity 67    
Maximum Humidity 78    
Minimum Humidity 56    
Precipitation  
Precipitation 0.00 in 0.07 in 2.30 in (1924)
Month to date precipitation 0.57 0.51  
Year to date precipitation 30.19 24.82  
Snow  
Snow 0.00 in 0.20 in 7.00 in (1951)
Month to date snowfall 0.0 0.9  
Since 1 July snowfall T 1.3  
Snow Depth 0.00 in    
Sea Level Pressure  
Sea Level Pressure 30.04 in    
Wind  
Wind Speed 7 mph (WNW)    
Max Wind Speed 15 mph    
Max Gust Speed 22 mph    
Visibility 10 miles    
Events      
T = Trace of Precipitation, MM = Missing Value Source: NWS Daily Summary

Daily Weather History Graph

Daily Weather History Graph

Search for Another Location

Airport:

Trip Planner

Search our weather history database for the weather conditions in past years. The results will help you decide how hot, cold, wet, or windy it might be!

Date:

Astronomy

Nov. 07, 2014 Rise Set
Actual Time 7:21 AM EST 5:14 PM EST
Civil Twilight 6:49 AM EST 5:45 PM EST
Nautical Twilight 6:14 AM EST 6:20 PM EST
Astronomical Twilight 5:40 AM EST 6:54 PM EST
Moon 6:05 PM EST (11/7) 7:56 AM EST (11/7)
Length of Visible Light 10h 55m
Length of Day
9h 53m
Full, 99% of the Moon is Illuminated
Nov 7
Full
Nov 14
Last Quarter
Nov 22
New
Nov 29
First Quarter
Dec 6
Full

Hourly Weather History & Observations

Time (EST) Temp. Windchill Dew Point Humidity Pressure Visibility Wind Dir Wind Speed Gust Speed Precip Events Conditions
12:54 AM 34.0 °F 24.2 °F 24.1 °F 67% 30.04 in 10.0 mi NNW 15.0 mph 21.9 mph N/A   Overcast
1:54 AM 33.1 °F 26.1 °F 24.1 °F 70% 30.05 in 10.0 mi NW 8.1 mph - N/A   Overcast
2:54 AM 32.0 °F 24.8 °F 24.1 °F 73% 30.06 in 10.0 mi NW 8.1 mph - N/A   Overcast
3:16 AM 32.0 °F 25.6 °F 24.1 °F 73% 30.04 in 10.0 mi Variable 6.9 mph - N/A   Overcast
3:54 AM 32.0 °F 25.6 °F 24.1 °F 73% 30.07 in 10.0 mi WNW 6.9 mph - N/A   Overcast
4:54 AM 32.0 °F 25.6 °F 24.1 °F 73% 30.07 in 10.0 mi NW 6.9 mph - N/A   Overcast
5:49 AM 32.0 °F 24.8 °F 23.0 °F 69% 30.05 in 10.0 mi NW 8.1 mph - N/A   Overcast
5:54 AM 32.0 °F 24.2 °F 21.9 °F 66% 30.07 in 10.0 mi NW 9.2 mph - N/A   Overcast
6:33 AM 30.9 °F 22.8 °F 23.0 °F 72% 30.06 in 10.0 mi NW 9.2 mph - N/A   Overcast
6:54 AM 30.9 °F 23.5 °F 23.0 °F 72% 30.09 in 10.0 mi NW 8.1 mph - N/A   Overcast
7:19 AM 30.9 °F 25.2 °F 23.0 °F 72% 30.07 in 10.0 mi WNW 5.8 mph - N/A   Overcast
7:36 AM 30.9 °F 25.2 °F 23.0 °F 72% 30.06 in 10.0 mi WNW 5.8 mph - N/A   Overcast
7:54 AM 30.9 °F 23.5 °F 23.0 °F 72% 30.09 in 10.0 mi WNW 8.1 mph - N/A   Overcast
8:54 AM 32.0 °F 27.5 °F 24.1 °F 73% 30.11 in 10.0 mi WNW 4.6 mph - N/A   Overcast
9:54 AM 33.1 °F 28.7 °F 24.1 °F 70% 30.11 in 10.0 mi NW 4.6 mph - N/A   Overcast
10:27 AM 33.1 °F 26.9 °F 23.0 °F 66% 30.08 in 10.0 mi NW 6.9 mph - N/A   Overcast
10:41 AM 34.0 °F 29.8 °F 23.0 °F 64% 30.08 in 10.0 mi West 4.6 mph - N/A   Overcast
10:54 AM 34.0 °F 28.8 °F 23.0 °F 64% 30.11 in 10.0 mi NW 5.8 mph - N/A   Overcast
11:54 AM 35.1 °F 29.3 °F 23.0 °F 61% 30.10 in 10.0 mi NW 6.9 mph - N/A   Overcast
12:54 PM 35.1 °F 28.6 °F 21.9 °F 59% 30.09 in 10.0 mi NW 8.1 mph - N/A   Overcast
1:54 PM 36.0 °F 31.1 °F 21.9 °F 57% 30.06 in 10.0 mi West 5.8 mph - N/A   Overcast
2:54 PM 36.0 °F 33.3 °F 21.0 °F 55% 30.04 in 10.0 mi WNW 3.5 mph - N/A   Mostly Cloudy
3:54 PM 36.0 °F 33.3 °F 21.0 °F 55% 30.03 in 10.0 mi WSW 3.5 mph - N/A   Clear
4:54 PM 34.0 °F 31.0 °F 21.9 °F 61% 30.01 in 10.0 mi East 3.5 mph - N/A   Clear
5:54 PM 30.9 °F - 24.1 °F 76% 30.00 in 10.0 mi Calm Calm - N/A   Clear
6:54 PM 30.0 °F 25.2 °F 24.1 °F 79% 30.00 in 10.0 mi South 4.6 mph - N/A   Scattered Clouds
7:54 PM 32.0 °F 24.8 °F 25.0 °F 75% 29.98 in 10.0 mi SSE 8.1 mph - N/A   Overcast
8:54 PM 33.1 °F 26.9 °F 26.1 °F 75% 29.95 in 10.0 mi SSE 6.9 mph - N/A   Overcast
9:54 PM 35.1 °F 27.9 °F 26.1 °F 70% 29.93 in 10.0 mi South 9.2 mph - N/A   Overcast
10:54 PM 35.1 °F 28.6 °F 27.0 °F 72% 29.91 in 10.0 mi South 8.1 mph - N/A   Overcast
11:54 PM 36.0 °F 29.0 °F 27.0 °F 70% 29.88 in 10.0 mi South 9.2 mph - N/A   Overcast